sat.trackr.live / text

‹ back to catalog

STARLINK-35973

NORAD 66632 · 2025-271R

PAYLOAD ACTIVE UNKNOWN

§ Identity

Operator
Country
US
Launch date
2025-11-23
Launch site
AFWTR
Launch vehicle
Mass (kg)
RCS (m²)

Purposes: comms

External: N2YO · Heavens-Above · Gunter

§ Orbital elements

Epoch: 2026-05-25T03:23:53.281824Z

Period
93.85 min
Inclination
53.1587°
Eccentricity
0.0001042
Mean motion
15.34407540 rev/d
Perigee alt
462.0 km
Apogee alt
463.4 km
Semi-major
6,840.8 km
B*
5.2977e-4
RAAN
143.2782°
Arg perigee
46.6937°
Mean anomaly
313.4152°
Rev number
2,924

§ Raw data

STARLINK-359731 66632U 25271R   26145.14158891  .00017569  00000+0  52977-3 0  99952 66632  53.1587 143.2782 0001042  46.6937 313.4152 15.34407540 29242

JSON: /api/v1/satellites/66632 · /tle

For live sub-satellite position, see the globe view (requires WebGL).

§ Visibility from observer

Set your observer location to see the next 7 days of passes ≥ 10°. The values pass through the URL so the page stays shareable.

No JS? Fill the form by hand. The geolocation button needs JavaScript.